Location: Molveno
(46.1500°N, 10.9667°E)
Time: 07:57:43
(UTC+00:00)

Cosmos 1980 - Pass Details

Date: 05 July 2020
Orbit: 839 x 847 km, 71.0° (Epoch: 05 August)

Event Time Altitude Azimuth Distance (km) Brightness Sun altitude
Exits shadow 21:56:43 24° 199° (SSW) 1,664 4.8 -18.6°
Maximum altitude 22:00:13 82° 114° (ESE) 854 3.6 -18.8°
Drops below altitude 10° 22:05:53 10° 28° (NNE) 2,466 6.7 -19.1°
Sets 22:08:20 0° 28° (NNE) 3,405 7.5 -19.2°
